Content
SEND FEEDBACK

Daily
Averages
Monthly
Summary
Switzerland

PAYERNE, SWITZERLAND


Home > Europe > Switzerland
Elevation: 1463 feet     Latitude: 46 50N     Longitude: 006 55E

WEATHER
 
SELECT A DAY
Number of Records: 86,441;   Date Range: 12/15/98 - 7/7/14
 
SHARE

PRINT THIS DATA

[ ← Previous Day ]
WEATHER ALMANAC - OCTOBER 22, 2013
[ Next Day → ]
[ °C ]   °F
Weather ElementAverageHighLow
Temperature58.3 °F68 °F (2:20 pm)48.2 °F (12:50 am)
Dewpoint45.5 °F48.2 °F (1:50 am)42.8 °F (7:20 am)
Humidity64 %93 % (1:20 am)43 % (2:50 pm)
Barometer29.94 in30.06 in (12:50 am)29.83 in (4:50 pm)
Wind Speed5.1 mph12.7 mph (11:50 am)
Weather ElementAverage
Visibility6.2 mi
Wind DirectionESE (115.1 °)

Weather ElementTotal
Precipitation---
Heating Degree Days6.9 (Base 65)
Growing Degree Days8.1 (Base 50)
Averaged from 47 records on October 22, 2013
WEATHER CONDITIONS BREAKOUT
WIND DIRECTION BREAKOUT
WEATHER BY HOUR - OCTOBER 22, 2013
[ °C ]   °F
Local TimeTemperatureDewpointHumidityBarometerVisibilityWind DirectionWind SpeedGust SpeedPrecipitationEventsConditions
12:50 AM48.2 °F44.6 °F87 %30.06 in6.2 miVariable2.3 mph
1:20 AM48.2 °F46.4 °F93 %30.06 inVariable2.3 mphClear
1:50 AM51.8 °F48.2 °F88 %30.06 in6.2 miWSW (240°)1.2 mph
2:20 AM53.6 °F48.2 °F82 %30.04 inVariable2.3 mphClear
2:50 AM53.6 °F46.4 °F77 %30.04 inVariable2.3 mphClear
3:20 AM51.8 °F46.4 °F82 %30.04 inVariable3.5 mphClear
3:50 AM53.6 °F44.6 °F72 %30.04 inVariable2.3 mphClear
4:20 AM53.6 °F46.4 °F77 %30.04 inSW (230°)4.6 mphClear
4:50 AM55.4 °F44.6 °F67 %30.01 inWest (280°)4.6 mphClear
5:20 AM51.8 °F46.4 °F82 %30.01 inVariable1.2 mphClear
5:50 AM53.6 °F46.4 °F77 %30.01 inVariable1.2 mphClear
6:20 AM53.6 °F46.4 °F77 %30.01 inVariable2.3 mphClear
6:50 AM53.6 °F46.4 °F77 %30.01 inVariable2.3 mphClear
7:20 AM55.4 °F42.8 °F63 %30.01 in6.2 miSW (220°)6.9 mph
7:50 AM53.6 °F42.8 °F67 %29.98 inVariable2.3 mphClear
8:20 AM55.4 °F42.8 °F63 %29.98 inVariable4.6 mphClear
8:50 AM53.6 °F44.6 °F72 %29.98 inVariable3.5 mphClear
9:20 AM55.4 °F46.4 °F72 %29.98 inWest (280°)5.8 mphClear
9:50 AM53.6 °F46.4 °F77 %29.98 inNNW (330°)1.2 mphClear
10:20 AM55.4 °F48.2 °F77 %29.98 inVariable1.2 mphClear
10:50 AM57.2 °F46.4 °F67 %29.98 inVariable3.5 mphClear
11:20 AM59.0 °F46.4 °F63 %29.95 inSSW (200°)8.1 mphClear
11:50 AM60.8 °F44.6 °F55 %29.95 inSouth (190°)12.7 mphClear
12:20 PM60.8 °F46.4 °F59 %29.95 inSSW (210°)8.1 mphClear
12:50 PM64.4 °F44.6 °F49 %29.95 inSSW (200°)10.4 mphClear
1:20 PM66.2 °F46.4 °F49 %29.92 inSouth (190°)9.2 mphClear
1:50 PM66.2 °F46.4 °F49 %29.92 inSSW (200°)8.1 mphClear
2:20 PM68.0 °F46.4 °F46 %29.92 inSSW (200°)9.2 mphClear
2:50 PM68.0 °F44.6 °F43 %29.89 inSSW (200°)10.4 mphClear
3:20 PM68.0 °F44.6 °F43 %29.89 inSouth (190°)9.2 mphClear
3:50 PM68.0 °F44.6 °F43 %29.86 inSSW (200°)10.4 mphClear
4:20 PM66.2 °F44.6 °F46 %29.86 inSouth (170°)9.2 mphClear
4:50 PM64.4 °F44.6 °F49 %29.83 inSouth (180°)10.4 mphClear
5:20 PM62.6 °F44.6 °F52 %29.83 inSouth (190°)11.5 mphClear
5:50 PM62.6 °F46.4 °F55 %29.86 inVariable2.3 mphClear
6:20 PM62.6 °F46.4 °F55 %29.86 inVariable2.3 mphClear
6:50 PM60.8 °F44.6 °F55 %29.86 inWest (280°)4.6 mphClear
7:20 PM57.2 °F46.4 °F67 %29.86 inVariable1.2 mphClear
7:50 PM53.6 °F46.4 °F77 %29.86 inVariable1.2 mphClear
8:20 PM60.8 °F42.8 °F52 %29.86 inSouth (190°)4.6 mphClear
8:50 PM60.8 °F42.8 °F52 %29.83 inSouth (180°)5.8 mphClear
9:20 PM62.6 °F42.8 °F48 %29.86 inSSW (200°)6.9 mphClear
9:50 PM60.8 °F44.6 °F55 %29.86 inWest (260°)5.8 mphClear
10:20 PM57.2 °F44.6 °F63 %29.86 in6.2 miVariable1.2 mph
10:50 PM57.2 °F46.4 °F67 %29.86 inVariable2.3 mphClear
11:20 PM59.0 °F48.2 °F67 %29.86 inVariable1.2 mphClear
11:50 PM62.6 °F46.4 °F55 %29.86 in6.2 miSSW (200°)12.7 mph
Hourly data recorded from LSGC, located miles away from Payerne, Switzerland







STORIES FROM OUR PARTNERS